LiveATC.Net - Listen to live air traffic control over the Internet!


ICAO: EYVP  IATA:   Airport: Paluknys Airport
City: Paluknys
Country: Lithuania   Continent: Europe
EYVI METAR Weather: EYVI 142020Z 33006KT 300V080 9999 SCT006 BKN058 06/06 Q1025 R01/2///95 NOSIG
EYVP Flight Activity (FlightAware)

EYVP CTAF
Feed Status: UP   Listeners: 0
Listen in your browser - HTML5 player (in browser, HTML5)
Listen in your browser - requires Flash (in browser, requires Flash)
Click here to listen with your own player (launches your MP3 player)
EYVP CTAF Audio Archives
FacilityFrequency
EYVP Paluknis CTAF119.100

NOTICE

Unauthorized use prohibited. See LiveATC.net Terms of Service


Find LiveATC Audio Streams


Airport/ARTCC Code

Frequency Search
(e.g., 124.400, 128.75)
Site-wide search
 


Browse LiveATC Feeds
Top 50 LiveATC Feeds
Bad Weather Areas

LiveATC FAQ
Offer a LiveATC Feed
Contact LiveATC.net
Press Inquiries

LiveATC on iPhone
LiveATC on Android

Windows Phone
Windows 8/10

LiveATC Mobile
(Mobile browser)

ATC Audio Archives
Interesting Recordings

LiveATC Forums


Home Page
About LiveATC.net
Make a Donation
Terms of Use
Privacy Policy

Canadian Air Freqs

AIRMETs/SIGMETs

FAA Airport Status
Nat'l Airspace Status
Arrival Demand Charts


Server Software By:
Icecast.org
Liquidsoap